Starlink 33808

operational
NORAD ID: 63767 Int'l Des: 2025-089 Owner: SPXS Country: US Constellation: starlink
LEOCIRCULAR

Über Starlink 33808

Beschreibung wird geladen...

Live-Position

3D-Globus wird geladen...

Nächste Überflüge

Höhenverlauf

Altitude vs Time

uPlot chart will show altitude changes over time

Zweizeiliger Elementsatz

1 63767U 25089S 25305.70293661 .00046680 00000-0 16933-2 0 9990
2 63767 43.0009 48.0361 0001401 265.4972 94.5719 15.27615272 29385
Epoch: 1. Nov. 2025 • Age: 54 hours

Aktueller Status

Höhe 486.3 km
Geschwindigkeit 7.63 km/s
Subsatellitenpunkt 42.68°N, 92.76°E
Startdatum 29. Apr. 2025
Alter 0.5 years
Typ internet

Technische Details

Klassifizierung Payload
Masse 575.00 kg
Trockenmasse 530.00 kg
Gesamtmasse 575.00 kg
Länge 0.30 m
Durchmesser 4.10 m
Spannweite 29.00 m
Form Box + pan
Hersteller SPXS
Bus-Typ Starlink V2MO
Phasenstatus In Orbit
Besitzer/Staat SPXS/US

Große Konstellationen

Loading constellations...